Time,TemperatureF,DewpointF,PressureIn,WindDirection,WindDirectionDegrees,WindSpeedMPH,WindSpeedGustMPH,Humidity,HourlyPrecipIn,Conditions,Clouds,dailyrainin,SoftwareType,DateUTC
2013-06-21 00:13:00,54.8,48.0,30.19,NNE,14,0.0,0.0,78,0.00,,,0.00,weatherlink.com 1.10,2013-06-21 04:13:00,
2013-06-21 00:28:00,54.5,47.0,30.20,NNE,14,0.0,1.0,76,0.00,,,0.00,weatherlink.com 1.10,2013-06-21 04:28:00,
2013-06-21 00:43:00,53.9,46.0,30.20,NNE,14,0.0,1.0,75,0.00,,,0.00,weatherlink.com 1.10,2013-06-21 04:43:00,
2013-06-21 00:58:00,54.0,47.0,30.20,NE,34,1.0,1.0,78,0.00,,,0.00,weatherlink.com 1.10,2013-06-21 04:58:00,
2013-06-21 01:13:00,54.2,47.0,30.20,NE,43,0.0,1.0,78,0.00,,,0.00,weatherlink.com 1.10,2013-06-21 05:13:00,
2013-06-21 01:28:00,54.7,48.0,30.19,ENE,57,1.0,1.0,78,0.00,,,0.00,weatherlink.com 1.10,2013-06-21 05:28:00,
2013-06-21 01:43:00,54.8,48.0,30.19,ENE,57,1.0,1.0,77,0.00,,,0.00,weatherlink.com 1.10,2013-06-21 05:43:00,
2013-06-21 01:58:00,55.0,48.0,30.18,ENE,57,0.0,1.0,77,0.00,,,0.00,weatherlink.com 1.10,2013-06-21 05:58:00,
2013-06-21 02:13:00,54.7,48.0,30.19,ENE,57,0.0,0.0,79,0.00,,,0.00,weatherlink.com 1.10,2013-06-21 06:13:00,
2013-06-21 02:28:00,53.4,47.0,30.19,ENE,57,0.0,0.0,80,0.00,,,0.00,weatherlink.com 1.10,2013-06-21 06:28:00,
2013-06-21 02:43:00,53.4,47.0,30.19,NE,56,0.0,1.0,80,0.00,,,0.00,weatherlink.com 1.10,2013-06-21 06:43:00,
2013-06-21 02:58:00,53.6,48.0,30.19,NE,56,0.0,1.0,80,0.00,,,0.00,weatherlink.com 1.10,2013-06-21 06:58:00,
2013-06-21 03:13:00,53.3,47.0,30.19,ENE,57,0.0,1.0,80,0.00,,,0.00,weatherlink.com 1.10,2013-06-21 07:13:00,
2013-06-21 03:28:00,53.0,47.0,30.19,NE,56,0.0,0.0,80,0.00,,,0.00,weatherlink.com 1.10,2013-06-21 07:28:00,
2013-06-21 03:43:00,53.2,47.0,30.19,ENE,57,0.0,0.0,78,0.00,,,0.00,weatherlink.com 1.10,2013-06-21 07:43:00,
2013-06-21 03:58:00,53.0,46.0,30.19,ENE,57,0.0,0.0,78,0.00,,,0.00,weatherlink.com 1.10,2013-06-21 07:58:00,
2013-06-21 04:13:00,52.5,46.0,30.19,ENE,57,0.0,1.0,79,0.00,,,0.00,weatherlink.com 1.10,2013-06-21 08:13:00,
2013-06-21 04:28:00,52.5,47.0,30.18,ENE,57,0.0,0.0,80,0.00,,,0.00,weatherlink.com 1.10,2013-06-21 08:28:00,
2013-06-21 04:43:00,52.4,47.0,30.19,NE,56,0.0,0.0,81,0.00,,,0.00,weatherlink.com 1.10,2013-06-21 08:43:00,
2013-06-21 04:58:00,52.3,46.0,30.20,ENE,57,0.0,0.0,80,0.00,,,0.00,weatherlink.com 1.10,2013-06-21 08:58:00,
2013-06-21 05:13:00,52.3,47.0,30.20,ENE,57,0.0,1.0,81,0.00,,,0.00,weatherlink.com 1.10,2013-06-21 09:13:00,
2013-06-21 05:28:00,52.5,47.0,30.21,NE,56,0.0,1.0,82,0.00,,,0.00,weatherlink.com 1.10,2013-06-21 09:28:00,
2013-06-21 05:43:00,52.9,47.0,30.21,ENE,57,0.0,1.0,81,0.00,,,0.00,weatherlink.com 1.10,2013-06-21 09:43:00,
2013-06-21 05:58:00,53.2,48.0,30.21,ENE,57,0.0,1.0,82,0.00,,,0.00,weatherlink.com 1.10,2013-06-21 09:58:00,
2013-06-21 06:13:00,53.6,48.0,30.21,NE,56,0.0,0.0,82,0.00,,,0.00,weatherlink.com 1.10,2013-06-21 10:13:00,
2013-06-21 06:28:00,54.0,49.0,30.21,ENE,57,0.0,0.0,83,0.00,,,0.00,weatherlink.com 1.10,2013-06-21 10:28:00,
2013-06-21 06:43:00,54.3,49.0,30.22,ENE,57,0.0,0.0,83,0.00,,,0.00,weatherlink.com 1.10,2013-06-21 10:43:00,
2013-06-21 06:58:00,54.7,50.0,30.22,ENE,57,0.0,0.0,83,0.00,,,0.00,weatherlink.com 1.10,2013-06-21 10:58:00,
2013-06-21 07:13:00,55.4,51.0,30.22,ENE,57,0.0,0.0,85,0.00,,,0.00,weatherlink.com 1.10,2013-06-21 11:13:00,
2013-06-21 07:28:00,55.9,51.0,30.22,NE,56,0.0,0.0,84,0.00,,,0.00,weatherlink.com 1.10,2013-06-21 11:28:00,
2013-06-21 07:44:00,56.2,52.0,30.22,ENE,57,0.0,0.0,86,0.00,,,0.00,weatherlink.com 1.10,2013-06-21 11:44:00,
2013-06-21 07:59:00,56.6,53.0,30.22,ENE,57,0.0,1.0,87,0.00,,,0.00,weatherlink.com 1.10,2013-06-21 11:59:00,
2013-06-21 08:14:00,57.1,53.0,30.22,ENE,57,0.0,0.0,85,0.00,,,0.00,weatherlink.com 1.10,2013-06-21 12:14:00,
2013-06-21 08:29:00,58.3,53.0,30.21,ENE,57,0.0,0.0,83,0.00,,,0.00,weatherlink.com 1.10,2013-06-21 12:29:00,
2013-06-21 08:44:00,59.8,55.0,30.22,ENE,57,0.0,0.0,83,0.00,,,0.00,weatherlink.com 1.10,2013-06-21 12:44:00,
2013-06-21 08:59:00,60.6,54.0,30.23,ENE,57,0.0,0.0,78,0.00,,,0.00,weatherlink.com 1.10,2013-06-21 12:59:00,
2013-06-21 09:14:00,61.2,52.0,30.22,NE,48,0.0,1.0,73,0.00,,,0.00,weatherlink.com 1.10,2013-06-21 13:14:00,
2013-06-21 09:29:00,61.9,51.0,30.22,ESE,122,0.0,2.0,68,0.00,,,0.00,weatherlink.com 1.10,2013-06-21 13:29:00,
2013-06-21 09:44:00,63.0,51.0,30.23,East,94,1.0,2.0,65,0.00,,,0.00,weatherlink.com 1.10,2013-06-21 13:44:00,
2013-06-21 09:59:00,64.4,50.0,30.23,NE,42,0.0,3.0,60,0.00,,,0.00,weatherlink.com 1.10,2013-06-21 13:59:00,
2013-06-21 10:14:00,65.8,50.0,30.23,West,266,0.0,2.0,58,0.00,,,0.00,weatherlink.com 1.10,2013-06-21 14:14:00,
2013-06-21 10:29:00,66.6,50.0,30.23,NE,35,3.0,3.0,56,0.00,,,0.00,weatherlink.com 1.10,2013-06-21 14:29:00,
2013-06-21 10:44:00,67.4,54.0,30.24,West,276,0.0,6.0,62,0.00,,,0.00,weatherlink.com 1.10,2013-06-21 14:44:00,
2013-06-21 10:59:00,68.1,52.0,30.24,West,263,0.0,2.0,56,0.00,,,0.00,weatherlink.com 1.10,2013-06-21 14:59:00,
2013-06-21 11:14:00,69.2,51.0,30.24,ESE,106,0.0,2.0,52,0.00,,,0.00,weatherlink.com 1.10,2013-06-21 15:14:00,
2013-06-21 11:29:00,70.9,55.0,30.24,ESE,104,0.0,2.0,58,0.00,,,0.00,weatherlink.com 1.10,2013-06-21 15:29:00,
2013-06-21 11:44:00,71.8,51.0,30.24,North,6,1.0,4.0,49,0.00,,,0.00,weatherlink.com 1.10,2013-06-21 15:44:00,
2013-06-21 11:59:00,72.8,54.0,30.24,WSW,246,0.0,2.0,52,0.00,,,0.00,weatherlink.com 1.10,2013-06-21 15:59:00,
2013-06-21 12:14:00,71.8,53.0,30.23,NE,35,0.0,5.0,52,0.00,,,0.00,weatherlink.com 1.10,2013-06-21 16:14:00,
2013-06-21 12:29:00,72.8,56.0,30.23,NW,322,2.0,3.0,55,0.00,,,0.00,weatherlink.com 1.10,2013-06-21 16:29:00,
2013-06-21 12:44:00,71.5,52.0,30.24,WNW,283,1.0,6.0,50,0.00,,,0.00,weatherlink.com 1.10,2013-06-21 16:44:00,
2013-06-21 12:59:00,71.8,53.0,30.23,North,360,1.0,6.0,52,0.00,,,0.00,weatherlink.com 1.10,2013-06-21 16:59:00,
2013-06-21 13:14:00,72.2,54.0,30.22,WNW,284,2.0,3.0,53,0.00,,,0.00,weatherlink.com 1.10,2013-06-21 17:14:00,
2013-06-21 13:29:00,72.9,54.0,30.22,East,94,2.0,2.0,51,0.00,,,0.00,weatherlink.com 1.10,2013-06-21 17:29:00,
2013-06-21 13:44:00,72.4,53.0,30.22,NNE,32,2.0,5.0,50,0.00,,,0.00,weatherlink.com 1.10,2013-06-21 17:44:00,
2013-06-21 14:30:00,73.7,56.0,30.21,WSW,255,0.0,4.0,54,0.00,,,0.00,weatherlink.com 1.10,2013-06-21 18:30:00,
2013-06-21 14:45:00,74.2,53.0,30.21,WSW,248,1.0,2.0,48,0.00,,,0.00,weatherlink.com 1.10,2013-06-21 18:45:00,
2013-06-21 15:00:00,73.2,53.0,30.22,NW,307,2.0,5.0,49,0.00,,,0.00,weatherlink.com 1.10,2013-06-21 19:00:00,
2013-06-21 15:15:00,74.1,55.0,30.21,SSW,197,1.0,3.0,52,0.00,,,0.00,weatherlink.com 1.10,2013-06-21 19:15:00,
2013-06-21 15:30:00,74.4,55.0,30.21,West,262,0.0,4.0,51,0.00,,,0.00,weatherlink.com 1.10,2013-06-21 19:30:00,
2013-06-21 15:45:00,74.8,51.0,30.21,SSE,147,0.0,2.0,44,0.00,,,0.00,weatherlink.com 1.10,2013-06-21 19:45:00,
2013-06-21 16:00:00,74.9,51.0,30.20,NW,309,2.0,4.0,44,0.00,,,0.00,weatherlink.com 1.10,2013-06-21 20:00:00,
2013-06-21 16:15:00,74.6,54.0,30.20,NW,319,0.0,3.0,48,0.00,,,0.00,weatherlink.com 1.10,2013-06-21 20:15:00,
2013-06-21 16:30:00,75.3,56.0,30.19,WNW,285,1.0,4.0,51,0.00,,,0.00,weatherlink.com 1.10,2013-06-21 20:30:00,
2013-06-21 17:00:00,74.7,52.0,30.19,North,356,0.0,4.0,46,0.00,,,0.00,weatherlink.com 1.10,2013-06-21 21:00:00,
2013-06-21 17:15:00,74.9,56.0,30.20,SSW,195,1.0,1.0,53,0.00,,,0.00,weatherlink.com 1.10,2013-06-21 21:15:00,
2013-06-21 17:30:00,74.7,53.0,30.19,NNW,329,0.0,2.0,47,0.00,,,0.00,weatherlink.com 1.10,2013-06-21 21:30:00,
2013-06-21 17:45:00,74.1,56.0,30.19,ESE,105,1.0,1.0,53,0.00,,,0.00,weatherlink.com 1.10,2013-06-21 21:45:00,
2013-06-21 18:00:00,73.5,55.0,30.19,NW,309,3.0,4.0,52,0.00,,,0.00,weatherlink.com 1.10,2013-06-21 22:00:00,
2013-06-21 18:15:00,73.2,54.0,30.19,NW,310,0.0,2.0,52,0.00,,,0.00,weatherlink.com 1.10,2013-06-21 22:15:00,
2013-06-21 18:30:00,72.9,55.0,30.19,SSE,155,0.0,1.0,53,0.00,,,0.00,weatherlink.com 1.10,2013-06-21 22:30:00,
2013-06-21 18:45:00,72.3,55.0,30.19,SSE,153,1.0,1.0,54,0.00,,,0.00,weatherlink.com 1.10,2013-06-21 22:45:00,
2013-06-21 19:00:00,71.7,55.0,30.20,ESE,121,0.0,1.0,56,0.00,,,0.00,weatherlink.com 1.10,2013-06-21 23:00:00,
2013-06-21 19:15:00,71.2,55.0,30.19,East,97,0.0,0.0,57,0.00,,,0.00,weatherlink.com 1.10,2013-06-21 23:15:00,
2013-06-21 19:30:00,69.7,56.0,30.19,East,98,0.0,0.0,61,0.00,,,0.00,weatherlink.com 1.10,2013-06-21 23:30:00,
2013-06-21 19:45:00,68.1,56.0,30.19,East,97,0.0,0.0,65,0.00,,,0.00,weatherlink.com 1.10,2013-06-21 23:45:00,
2013-06-21 20:00:00,66.2,57.0,30.19,East,97,0.0,0.0,71,0.00,,,0.00,weatherlink.com 1.10,2013-06-22 00:00:00,
2013-06-21 20:15:00,65.1,57.0,30.19,East,98,0.0,0.0,74,0.00,,,0.00,weatherlink.com 1.10,2013-06-22 00:15:00,
2013-06-21 20:30:00,64.5,56.0,30.18,East,96,0.0,0.0,74,0.00,,,0.00,weatherlink.com 1.10,2013-06-22 00:30:00,
2013-06-21 20:45:00,63.7,56.0,30.18,East,89,1.0,1.0,75,0.00,,,0.00,weatherlink.com 1.10,2013-06-22 00:45:00,
2013-06-21 21:00:00,63.1,55.0,30.18,East,89,1.0,1.0,76,0.00,,,0.00,weatherlink.com 1.10,2013-06-22 01:00:00,
2013-06-21 21:15:00,62.7,55.0,30.18,East,89,1.0,1.0,76,0.00,,,0.00,weatherlink.com 1.10,2013-06-22 01:15:00,
2013-06-21 21:30:00,62.3,55.0,30.19,East,89,1.0,1.0,76,0.00,,,0.00,weatherlink.com 1.10,2013-06-22 01:30:00,
2013-06-21 21:45:00,62.0,54.0,30.19,East,87,1.0,1.0,76,0.00,,,0.00,weatherlink.com 1.10,2013-06-22 01:45:00,
2013-06-21 22:00:00,61.9,54.0,30.19,East,88,0.0,1.0,75,0.00,,,0.00,weatherlink.com 1.10,2013-06-22 02:00:00,
2013-06-21 22:15:00,61.8,54.0,30.19,East,88,1.0,1.0,76,0.00,,,0.00,weatherlink.com 1.10,2013-06-22 02:15:00,
2013-06-21 22:30:00,61.8,54.0,30.19,East,88,1.0,1.0,76,0.00,,,0.00,weatherlink.com 1.10,2013-06-22 02:30:00,
2013-06-21 22:45:00,61.7,54.0,30.18,East,88,1.0,1.0,76,0.00,,,0.00,weatherlink.com 1.10,2013-06-22 02:45:00,
2013-06-21 23:00:00,61.6,54.0,30.19,East,87,1.0,1.0,76,0.00,,,0.00,weatherlink.com 1.10,2013-06-22 03:00:00,
2013-06-21 23:15:00,61.3,54.0,30.18,East,88,1.0,1.0,77,0.00,,,0.00,weatherlink.com 1.10,2013-06-22 03:15:00,
2013-06-21 23:30:00,61.2,54.0,30.18,East,87,1.0,1.0,77,0.00,,,0.00,weatherlink.com 1.10,2013-06-22 03:30:00,
2013-06-21 23:45:00,61.0,54.0,30.19,East,88,1.0,1.0,78,0.00,,,0.00,weatherlink.com 1.10,2013-06-22 03:45:00,